EN

Hourly Weather Kysucke Nove Mesto

Today, 31 July, Saturday

Time Temperature Precipitation Wind Pressure Humidity
00:00 +21°C° 0 mm 1 mps 726 mmHg 76%
01:00 +20°C° 0 mm 1 mps 726 mmHg 77%
02:00 +20°C° 0 mm 1 mps 726 mmHg 78%
03:00 +20°C° 0 mm 1 mps 726 mmHg 79%
04:00 +19°C° 0 mm 1 mps 725 mmHg 79%
05:00 +21°C° 0.1 mm 1 mps 726 mmHg 76%
06:00 +22°C° 0.1 mm 1 mps 726 mmHg 73%
07:00 +22°C° 0.1 mm 0 mps 726 mmHg 69%
08:00 +23°C° 0.3 mm 1 mps 726 mmHg 73%
09:00 +23°C° 0.3 mm 1 mps 726 mmHg 76%
10:00 +23°C° 0.3 mm 2 mps 726 mmHg 79%
11:00 +22°C° 2.9 mm 1 mps 726 mmHg 85%
12:00 +21°C° 2.9 mm 1 mps 726 mmHg 91%
13:00 +20°C° 2.9 mm 1 mps 726 mmHg 97%
14:00 +21°C° 0.4 mm 1 mps 727 mmHg 89%
15:00 +22°C° 0.4 mm 1 mps 727 mmHg 81%
16:00 +24°C° 0.4 mm 1 mps 727 mmHg 73%
17:00 +23°C° 0 mm 1 mps 727 mmHg 78%
18:00 +22°C° 0 mm 1 mps 727 mmHg 82%
19:00 +21°C° 0 mm 1 mps 727 mmHg 87%
20:00 +20°C° 0 mm 1 mps 727 mmHg 89%
21:00 +18°C° 0 mm 0 mps 727 mmHg 91%
22:00 +17°C° 0 mm 0 mps 727 mmHg 92%
23:00 +19°C° 0 mm 1 mps 727 mmHg 92%

Tomorrow, 1 August, Sunday

Time Temperature Precipitation Wind Pressure Humidity
00:00 +19°C° 0 mm 1 mps 727 mmHg 91%
01:00 +19°C° 0 mm 1 mps 727 mmHg 90%
02:00 +19°C° 0 mm 1 mps 726 mmHg 90%
03:00 +18°C° 0 mm 1 mps 726 mmHg 91%
04:00 +18°C° 0 mm 1 mps 726 mmHg 91%
05:00 +19°C° 0.3 mm 1 mps 726 mmHg 90%
06:00 +20°C° 0.3 mm 1 mps 726 mmHg 90%
07:00 +20°C° 0.3 mm 1 mps 726 mmHg 89%
08:00 +21°C° 0.4 mm 1 mps 725 mmHg 87%
09:00 +22°C° 0.4 mm 1 mps 725 mmHg 84%
10:00 +23°C° 0.4 mm 1 mps 725 mmHg 82%
11:00 +24°C° 0.1 mm 1 mps 725 mmHg 75%
12:00 +26°C° 0.1 mm 2 mps 725 mmHg 68%
13:00 +27°C° 0.1 mm 3 mps 724 mmHg 61%
14:00 +25°C° 0.9 mm 3 mps 724 mmHg 70%
15:00 +24°C° 0.9 mm 2 mps 724 mmHg 79%
16:00 +21°C° 0.9 mm 2 mps 723 mmHg 88%
17:00 +20°C° 1.3 mm 2 mps 724 mmHg 91%
18:00 +19°C° 1.3 mm 2 mps 724 mmHg 94%
19:00 +19°C° 1.3 mm 1 mps 724 mmHg 97%
20:00 +18°C° 0.1 mm 1 mps 724 mmHg 97%
21:00 +18°C° 0.1 mm 1 mps 724 mmHg 97%
22:00 +18°C° 0.1 mm 1 mps 724 mmHg 97%
23:00 +18°C° 0 mm 1 mps 724 mmHg 97%

Day after tomorrow, 2 August, Monday

Time Temperature Precipitation Wind Pressure Humidity
00:00 +18°C° 0 mm 1 mps 724 mmHg 98%
01:00 +16°C° 0 mm 1 mps 725 mmHg 98%
02:00 +16°C° 0.5 mm 1 mps 725 mmHg 98%
03:00 +16°C° 0.5 mm 1 mps 725 mmHg 98%
04:00 +16°C° 0.5 mm 1 mps 725 mmHg 98%
05:00 +16°C° 0.3 mm 1 mps 726 mmHg 97%
06:00 +15°C° 0.3 mm 1 mps 726 mmHg 97%
07:00 +15°C° 0.3 mm 1 mps 726 mmHg 96%
08:00 +16°C° 0 mm 1 mps 727 mmHg 92%
09:00 +18°C° 0 mm 1 mps 727 mmHg 88%
10:00 +19°C° 0 mm 1 mps 728 mmHg 84%
11:00 +20°C° 0.2 mm 1 mps 728 mmHg 77%
12:00 +21°C° 0.2 mm 1 mps 728 mmHg 70%
13:00 +23°C° 0.2 mm 2 mps 728 mmHg 64%
14:00 +23°C° 0.3 mm 2 mps 728 mmHg 63%
15:00 +23°C° 0.3 mm 2 mps 728 mmHg 63%
16:00 +23°C° 0.3 mm 2 mps 728 mmHg 62%
17:00 +20°C° 0.3 mm 2 mps 728 mmHg 71%
18:00 +20°C° 0.3 mm 1 mps 728 mmHg 79%
19:00 +18°C° 0.3 mm 1 mps 728 mmHg 87%
20:00 +16°C° 0 mm 1 mps 729 mmHg 89%
21:00 +14°C° 0 mm 0 mps 729 mmHg 90%
22:00 +14°C° 0 mm 0 mps 729 mmHg 92%
23:00 +13°C° 0 mm 0 mps 730 mmHg 92%

3 August, Tuesday

Time Temperature Precipitation Wind Pressure Humidity
00:00 +13°C° 0 mm 0 mps 730 mmHg 92%
01:00 +13°C° 0 mm 0 mps 730 mmHg 93%
02:00 +13°C° 0 mm 0 mps 730 mmHg 93%
03:00 +12°C° 0 mm 0 mps 730 mmHg 94%
04:00 +12°C° 0 mm 0 mps 730 mmHg 94%
05:00 +14°C° 0 mm 0 mps 730 mmHg 91%
06:00 +15°C° 0 mm 0 mps 731 mmHg 88%
07:00 +16°C° 0 mm 0 mps 731 mmHg 84%
08:00 +20°C° 0 mm 1 mps 731 mmHg 74%
09:00 +22°C° 0 mm 1 mps 731 mmHg 63%
10:00 +24°C° 0 mm 1 mps 731 mmHg 52%
11:00 +25°C° 0 mm 2 mps 731 mmHg 48%
12:00 +26°C° 0 mm 2 mps 730 mmHg 44%
13:00 +27°C° 0 mm 2 mps 730 mmHg 41%
14:00 +26°C° 0 mm 2 mps 730 mmHg 44%
15:00 +26°C° 0 mm 2 mps 729 mmHg 46%
16:00 +26°C° 0 mm 1 mps 729 mmHg 49%
17:00 +24°C° 0 mm 1 mps 729 mmHg 57%
18:00 +22°C° 0 mm 1 mps 729 mmHg 65%
19:00 +21°C° 0 mm 1 mps 729 mmHg 72%
20:00 +20°C° 0 mm 1 mps 729 mmHg 74%
21:00 +19°C° 0 mm 1 mps 728 mmHg 75%
22:00 +18°C° 0 mm 1 mps 728 mmHg 77%
23:00 +18°C° 1.4 mm 1 mps 728 mmHg 84%

4 August, Wednesday

Time Temperature Precipitation Wind Pressure Humidity
00:00 +16°C° 1.4 mm 1 mps 728 mmHg 90%
01:00 +16°C° 1.4 mm 1 mps 728 mmHg 97%
02:00 +16°C° 2.1 mm 1 mps 728 mmHg 98%
03:00 +16°C° 2.1 mm 1 mps 728 mmHg 98%
04:00 +16°C° 2.1 mm 1 mps 728 mmHg 98%
05:00 +18°C° 0.1 mm 1 mps 728 mmHg 96%
06:00 +16°C° 0.1 mm 0 mps 728 mmHg 94%
07:00 +17°C° 0.1 mm 0 mps 728 mmHg 91%
08:00 +21°C° 0 mm 1 mps 728 mmHg 79%
09:00 +23°C° 0 mm 1 mps 728 mmHg 67%
10:00 +25°C° 0 mm 1 mps 728 mmHg 55%
11:00 +25°C° 0 mm 2 mps 728 mmHg 50%
12:00 +26°C° 0 mm 2 mps 727 mmHg 45%
13:00 +26°C° 0 mm 2 mps 727 mmHg 41%
14:00 +26°C° 0 mm 2 mps 727 mmHg 42%
15:00 +26°C° 0 mm 1 mps 727 mmHg 43%
16:00 +26°C° 0 mm 1 mps 727 mmHg 44%
17:00 +24°C° 0 mm 1 mps 727 mmHg 53%
18:00 +22°C° 0 mm 1 mps 726 mmHg 61%
19:00 +20°C° 0 mm 1 mps 726 mmHg 70%
20:00 +20°C° 0 mm 1 mps 726 mmHg 70%
21:00 +20°C° 0 mm 1 mps 726 mmHg 71%
22:00 +19°C° 0 mm 1 mps 726 mmHg 71%
23:00 +19°C° 0 mm 1 mps 726 mmHg 73%

5 August, Thursday

Time Temperature Precipitation Wind Pressure Humidity
00:00 +19°C° 0 mm 1 mps 725 mmHg 76%
01:00 +19°C° 0 mm 1 mps 725 mmHg 78%
02:00 +18°C° 0.9 mm 1 mps 725 mmHg 84%
03:00 +16°C° 0.9 mm 0 mps 725 mmHg 90%
04:00 +15°C° 0.9 mm 0 mps 724 mmHg 96%
05:00 +15°C° 1.1 mm 0 mps 724 mmHg 97%
06:00 +15°C° 1.1 mm 0 mps 724 mmHg 98%
07:00 +15°C° 1.1 mm 0 mps 724 mmHg 98%
08:00 +15°C° 0.7 mm 0 mps 724 mmHg 98%
09:00 +15°C° 0.7 mm 0 mps 724 mmHg 98%
10:00 +16°C° 0.7 mm 0 mps 724 mmHg 97%
11:00 +18°C° 0.9 mm 1 mps 724 mmHg 96%
12:00 +18°C° 0.9 mm 1 mps 724 mmHg 95%
13:00 +18°C° 0.9 mm 1 mps 725 mmHg 93%
14:00 +19°C° 0.1 mm 1 mps 725 mmHg 87%
15:00 +20°C° 0.1 mm 1 mps 725 mmHg 81%
16:00 +21°C° 0.1 mm 1 mps 725 mmHg 76%
17:00 +20°C° 0.1 mm 1 mps 724 mmHg 81%
18:00 +19°C° 0.1 mm 1 mps 724 mmHg 86%
19:00 +18°C° 0.1 mm 1 mps 724 mmHg 92%
20:00 +18°C° 0.1 mm 1 mps 724 mmHg 93%
21:00 +16°C° 0.1 mm 1 mps 724 mmHg 93%
22:00 +16°C° 0.1 mm 1 mps 725 mmHg 94%
23:00 +15°C° 0 mm 1 mps 724 mmHg 95%
Show more